Weather in Miandoab

Iran     36°57′52″N   46°05′36″E
temp.,
°C
wind,
m/s
gust,
m/s
humid.,
%
clouds,
%
prec.,
mm/h
press.,
hPa
HPBL,
m
15 may, sat
sat1501:30+16e47420 0.0 1013115
04:30+14e12480 0.0 101449
07:30+15n13530 0.0 1015121
10:30+23ne56200 0.0 10141546
13:30+26nne56140 0.0 10112653
16:30+27nnw66190 0.0 10102711
19:30+22nw46280 0.0 1010212
22:30+17nnw12300 0.0 101211
16 may, sun
sun1601:30+15ese34350 0.0 101257
04:30+15e34394 0.0 101341
07:30+16e23440 0.0 101371
10:30+22ese11300 0.0 1012967
13:30+26ese12190 0.0 10102540
16:30+28n33161 0.0 10073267
19:30+25n35230 0.0 100795
22:30+20wnw33313 0.0 101040
17 may, mon
mon1701:30+16w35735 0.0 101177
04:30+15sse117112 0.0 101211
07:30+17se35580 0.0 1012118
10:30+26sse34245 0.0 1010930
13:30+31sw5712100 0.0 10094246
16:30+31sw7101192 0.0 10074650
19:30+27sw341858 0.0 100758
22:30+21sse462278 0.0 100961
18 may, tue
tue1801:30+23s61420100 0.0 1008484
04:30+18sse332728 0.0 100929
07:30+21s915300 0.0 1009645
10:30+27ssw714178 0.0 10073269
13:30+30sw11151318 0.0 10063924
16:30+29w710134 0.0 10053751
19:30+25wnw69180 0.0 1007468
22:30+18ssw22260 0.0 101018
19 may, wed
wed1901:30+16s22300 0.0 101213
04:30+15sse11310 0.0 101211
07:30+17ssw01360 0.0 101436
10:30+23nnw22280 0.0 10131101
13:30+27nw64210 0.0 10112200
16:30+28nw54190 0.0 10101835
19:30+25nw45220 0.0 1011215
22:30+18wsw11290 0.0 101311